"Time","Temp","Dewpoint","Humidity","Pressure","Direction","Speed","Gust","Precip","PrecipRate"
"00:04:57","29.8","25","82.1","30.30","157","0","0","0.00","0.00"
"00:09:58","29.8","25.3","83","30.30","157","0","0","0.00","0.00"
"00:14:59","29.8","25.3","83","30.30","157","0","0","0.00","0.00"
"00:19:59","29.8","25.3","83","30.30","157","0","0","0.00","0.00"
"00:24:58","29.8","25.4","83.3","30.30","157","0","0","0.00","0.00"
"00:29:59","29.7","25.2","83","30.30","157","0","0","0.00","0.00"
"00:34:56","29.7","25.2","83","30.30","157","0","0","0.00","0.00"
"00:39:59","29.6","25.1","83","30.30","157","0","0","0.00","0.00"
"00:44:59","29.6","25.1","83","30.30","157","0","0","0.00","0.00"
"00:49:56","29.5","25","83","30.29","157","0","0","0.00","0.00"
"00:54:56","29.4","24.9","83","30.29","157","0","0","0.00","0.00"
"00:59:55","29.4","24.9","83","30.29","157","0","0","0.00","0.00"
"01:04:58","29.3","25","83.9","30.28","157","0","0","0.00","0.00"
"01:09:59","29.2","25","84","30.28","157","0","0","0.00","0.00"
"01:14:57","29.2","24.8","83.4","30.28","157","0","0","0.00","0.00"
"01:19:57","29.2","24.7","83","30.26","157","0","0","0.00","0.00"
"01:24:56","29.1","24.7","83.4","30.26","157","0","0","0.00","0.00"
"01:29:57","29","24.8","84","30.26","157","0","0","0.00","0.00"
"01:34:59","28.8","24.6","84","30.26","157","0","0","0.00","0.00"
"01:39:59","28.7","24.5","84","30.26","157","0.2","2.3","0.00","0.00"
"01:44:59","28.7","24.7","84.8","30.27","157","1.7","3.5","0.00","0.00"
"01:49:59","28.8","25","85.6","30.27","157","1.4","2.3","0.00","0.00"
"01:54:58","28.9","25","85.3","30.27","154","1.5","3.5","0.00","0.00"
"01:59:58","29","25.1","85.4","30.27","151","0.1","2.3","0.00","0.00"
"02:04:58","29","25.1","85","30.27","151","0","0","0.00","0.00"
"02:09:58","29","25.1","85","30.27","151","0.1","1.2","0.00","0.00"
"02:14:58","29.1","25.4","86","30.27","151","0.1","1.2","0.00","0.00"
"02:19:59","29.1","25.2","85.2","30.26","151","0","0","0.00","0.00"
"02:24:59","29.1","25.2","85","30.26","151","0","0","0.00","0.00"
"02:29:57","29.2","25.3","85.1","30.26","151","0","0","0.00","0.00"
"02:34:56","29.3","25.6","86","30.26","151","0","0","0.00","0.00"
"02:39:56","29.5","26","86.5","30.26","151","0","0","0.00","0.00"
"02:44:59","29.7","26","86.2","30.26","151","0.3","2.3","0.00","0.00"
"02:49:56","29.9","26.2","86.2","30.25","151","0.4","2.3","0.00","0.00"
"02:54:58","30","26.3","86","30.25","151","0.2","1.2","0.00","0.00"
"02:59:56","30.2","26.4","85.6","30.25","151","0","1.2","0.00","0.00"
"03:04:57","30.3","26.3","85","30.25","151","0.4","2.3","0.00","0.00"
"03:09:58","30.3","26.3","85","30.25","151","0.5","2.3","0.00","0.00"
"03:14:59","30.3","26.2","84.5","30.25","151","0","0","0.00","0.00"
"03:19:58","30.3","26","84","30.24","151","0.1","2","0.00","0.00"
"03:24:56","30.3","26.2","84.8","30.24","151","1.1","2.3","0.00","0.00"
"03:29:56","30.3","26.3","85","30.24","151","0","0","0.00","0.00"
"03:34:59","30.2","26.2","85","30.24","151","0","0","0.00","0.00"
"03:39:56","30.2","26.4","85.6","30.24","151","0","0","0.00","0.00"
"03:44:56","30.3","26.6","86","30.24","151","0","0","0.00","0.00"
"03:49:57","30.2","26.5","86","30.24","151","0","0","0.00","0.00"
"03:54:58","30.1","26.4","86","30.24","151","0","0","0.00","0.00"
"03:59:56","30","26.3","86","30.24","151","0","0","0.00","0.00"
"04:04:59","30","26.3","86","30.22","151","0","0","0.00","0.00"
"04:09:59","30.1","26.4","86","30.22","151","0.3","2.3","0.00","0.00"
"04:14:57","30","26.1","85.4","30.22","151","0","1.2","0.00","0.00"
"04:19:57","29.9","25.9","85","30.22","151","0","0","0.00","0.00"
"04:24:58","29.7","25.7","85","30.22","151","0","0","0.00","0.00"
"04:29:57","29.6","25.8","85.8","30.22","151","1.1","2.3","0.00","0.00"
"04:34:58","29.5","25.8","86","30.22","151","1","2.3","0.00","0.00"
"04:39:56","29.3","25.6","86","30.22","151","0","0","0.00","0.00"
"04:44:59","29.2","25.5","86","30.22","151","0.2","2.3","0.00","0.00"
"04:49:56","29","25.3","86","30.21","151","0","2.3","0.00","0.00"
"04:54:58","28.7","25","86","30.21","151","0","0","0.00","0.00"
"04:59:58","28.6","25.2","86.8","30.22","151","0","0","0.00","0.00"
"05:04:58","28.6","25.2","87","30.22","151","0.4","2.3","0.00","0.00"
"05:09:59","28.5","25.1","87","30.22","151","0","0","0.00","0.00"
"05:14:56","28.4","25","87","30.22","151","0.1","1.2","0.00","0.00"
"05:19:56","28.3","24.9","87","30.21","120","1.1","3.5","0.00","0.00"
"05:24:59","28.2","25.1","87.9","30.21","55","2.1","3.5","0.00","0.00"
"05:29:56","28.1","25","88","30.21","55","0.8","2.3","0.00","0.00"
"05:34:56","28.1","25","88","30.21","55","0.4","2.3","0.00","0.00"
"05:39:57","28.1","25","88","30.21","55","0","0","0.00","0.00"
"05:44:58","28","24.6","87.1","30.21","55","0","0","0.00","0.00"
"05:49:58","28","24.6","87","30.21","55","0","0","0.00","0.00"
"05:54:59","27.9","24.5","87","30.21","55","0","0","0.00","0.00"
"05:59:56","27.8","24.4","87","30.21","55","0","0","0.00","0.00"
"06:04:56","27.7","24.5","88","30.20","55","0","0","0.00","0.00"
"06:09:58","27.6","24.5","88","30.20","55","0","1","0.00","0.00"
"06:14:57","27.5","24.4","88","30.20","55","0","1.2","0.00","0.00"
"06:19:58","27.5","24.4","88","30.20","55","0","0","0.00","0.00"
"06:24:56","27.4","24.3","88","30.20","55","0","0","0.00","0.00"
"06:29:59","27.4","24.5","88.6","30.20","55","0","0","0.00","0.00"
"06:34:59","27.4","24.3","88","30.20","55","0","0","0.00","0.00"
"06:39:56","27.4","24.3","88","30.20","55","0","0","0.00","0.00"
"06:44:58","27.5","24.4","88","30.20","55","0","0","0.00","0.00"
"06:49:59","27.6","24.5","88","30.19","55","0","0","0.00","0.00"
"06:54:59","27.7","24.6","88.1","30.19","55","0","0","0.00","0.00"
"06:59:59","27.8","24.7","88","30.20","55","0","0","0.00","0.00"
"07:04:57","27.8","24.8","88.4","30.20","55","0.9","2.3","0.00","0.00"
"07:09:57","27.9","25.1","89","30.20","55","0.1","1.2","0.00","0.00"
"07:14:58","27.9","25.1","89","30.20","55","0","0","0.00","0.00"
"07:19:56","28","25.2","89","30.19","55","0","0","0.00","0.00"
"07:24:58","28","25.2","89","30.19","55","0","0","0.00","0.00"
"07:29:59","28.1","25.3","89","30.19","55","0","0","0.00","0.00"
"07:34:59","28.2","25.4","89","30.19","55","0","0","0.00","0.00"
"07:39:56","28.3","25.5","89","30.19","55","0","0","0.00","0.00"
"07:44:57","28.5","25.4","88","30.19","55","0","0","0.00","0.00"
"07:49:57","28.6","25.5","88","30.19","55","0.2","2.3","0.00","0.00"
"07:54:59","28.8","25.7","88","30.19","55","0.1","1.2","0.00","0.00"
"07:59:56","29","25.9","88","30.19","55","0","0","0.00","0.00"
"08:04:57","29.2","26.1","88","30.18","55","0","0","0.00","0.00"
"08:09:58","29.3","26.2","88","30.18","55","0","0","0.00","0.00"
"08:14:56","29.5","26.4","87.8","30.18","55","0","0","0.00","0.00"
"08:19:58","29.8","26.5","87.4","30.18","55","0","0","0.00","0.00"
"08:24:57","30.3","27.1","87.5","30.18","55","0","0","0.00","0.00"
"08:29:59","30.8","27.2","86.3","30.18","55","0","0","0.00","0.00"
"08:34:58","31.3","27.4","85.1","30.17","55","0.1","1.2","0.00","0.00"
"08:39:59","31.9","27.6","84.1","30.17","55","0.4","2.3","0.00","0.00"
"08:44:58","32.7","27.9","82.6","30.17","55","0","1.2","0.00","0.00"
"08:49:57","33.4","28","80.3","30.17","55","0","0","0.00","0.00"
"08:54:59","34.3","28.4","78.7","30.17","55","0.5","2.3","0.00","0.00"
"08:59:56","35.4","28.9","76.8","30.17","55","0.2","2","0.00","0.00"
"09:04:57","36.5","29","74.2","30.17","55","1","3","0.00","0.00"
"09:09:57","37.1","28.7","71.6","30.17","58","0.4","3.5","0.00","0.00"
"09:14:59","37.7","28.6","69.6","30.17","58","0.1","2.3","0.00","0.00"
"09:19:58","38.3","28.7","68.2","30.16","58","0","1","0.00","0.00"
"09:24:56","39.1","28.8","66.4","30.16","126","1.6","3.5","0.00","0.00"
"09:29:58","39.6","29","65.6","30.16","139","0.7","3.5","0.00","0.00"
"09:34:56","40.2","29.2","64.5","30.16","162","0.6","2.3","0.00","0.00"
"09:39:56","40.8","29.6","64.2","30.16","190","0.8","2.3","0.00","0.00"
"09:44:59","41.1","29.8","63.9","30.16","190","1.2","3.5","0.00","0.00"
"09:49:56","41.4","30.3","64.5","30.16","213","1.5","4","0.00","0.00"
"09:54:57","41.7","30.6","64.5","30.16","309","2.3","4","0.00","0.00"
"09:59:57","41.9","29","59.9","30.16","310","1.9","4","0.00","0.00"
"10:04:57","42","29.1","59.9","30.16","289","1.4","3.5","0.00","0.00"
"10:09:58","42.1","29.2","60.2","30.16","288","0.3","1.2","0.00","0.00"
"10:14:56","42.5","29.9","60.8","30.16","288","0.3","2.3","0.00","0.00"
"10:18:44","43.1","29.5","58.5","30.15","288","0.4","3.5","0.00","0.00"
"10:54:58","48.3","31","51","30.13","205","1.9","3","0.00","0.00"
"10:59:59","48.5","31","50.5","30.13","172","1.8","3.5","0.00","0.00"
"11:04:56","49","31.6","51.1","30.12","167","1.3","3.5","0.00","0.00"
"11:09:57","49.7","33.2","52.9","30.12","161","1.1","4","0.00","0.00"
"11:14:57","50.3","32.5","50.4","30.12","131","1.8","4","0.00","0.00"
"11:19:56","50.6","32.9","50.7","30.10","121","1.3","3.5","0.00","0.00"
"11:24:56","50.9","32.2","48.5","30.10","113","2.1","5","0.00","0.00"
"11:29:59","51.1","32.9","49.5","30.10","117","1.8","4","0.00","0.00"
"11:34:59","51.3","32.9","49.4","30.09","104","2.3","4","0.00","0.00"
"11:39:59","51.5","33","49.2","30.09","102","1.7","3.5","0.00","0.00"
"11:44:58","52.1","33.5","49","30.09","104","1","3","0.00","0.00"
"11:49:58","52.8","33","46.7","30.08","112","1.8","4","0.00","0.00"
"11:54:56","53.1","32","44.5","30.08","181","1.9","6","0.00","0.00"
"11:59:57","53.3","33","46","30.08","202","1.4","3.5","0.00","0.00"
"12:04:58","53.5","33.2","46","30.06","177","1.3","3.5","0.00","0.00"
"12:09:58","53.7","33","45.2","30.06","147","1.8","4","0.00","0.00"
"12:14:56","53.7","32.8","44.9","30.06","137","1.6","4","0.00","0.00"
"12:19:56","53.8","33.9","46.7","30.05","153","1.4","4","0.00","0.00"
"12:24:56","54.2","34.1","46.5","30.05","121","1.5","3.5","0.00","0.00"
"12:29:56","54.5","34.4","46.4","30.05","122","1.7","4","0.00","0.00"
"12:34:55","54.9","34.4","45.9","30.03","130","2.4","4","0.00","0.00"
"12:39:58","54.9","33.7","44.6","30.03","165","2","4","0.00","0.00"
"12:44:59","55","34","44.8","30.03","184","2","4","0.00","0.00"
"12:49:56","55.3","34.1","44.6","30.02","186","1.3","3.5","0.00","0.00"
"12:54:57","55.6","34","44","30.02","190","3","7","0.00","0.00"
"12:59:57","55.7","34.4","44.6","30.02","189","2.3","4","0.00","0.00"
"13:04:59","55.9","34.2","43.8","30.02","199","2.9","5","0.00","0.00"
"13:09:56","55.7","34.2","44.2","30.02","211","2.2","4.6","0.00","0.00"
"13:14:56","55.3","32.9","42.5","30.02","204","2","4","0.00","0.00"
"13:19:57","55.1","34","44.8","30.02","193","1.7","4","0.00","0.00"
"13:24:57","55.4","33.7","43.8","30.02","193","0.9","3.5","0.00","0.00"
"13:29:58","56.1","34.8","44.7","30.02","193","0.4","2.3","0.00","0.00"
"13:34:58","56.7","34.4","42.9","30.02","193","0.8","2.3","0.00","0.00"
"13:39:56","57.3","35.2","43.5","30.02","193","0.9","3.5","0.00","0.00"
"13:44:57","58.4","35.2","41.7","30.02","193","1.2","3.5","0.00","0.00"
"13:49:58","58.9","33.8","38.8","30.01","210","1.9","5","0.00","0.00"
"13:54:56","58.7","34.3","39.8","30.01","195","2.8","6","0.00","0.00"
"13:59:56","58.5","34.7","40.7","30.01","130","2.4","6","0.00","0.00"
"14:04:58","58.3","34.8","41.1","29.99","126","2.8","6","0.00","0.00"
"14:09:58","58.5","35.5","42","29.99","108","2.5","5","0.00","0.00"
"14:14:56","58.6","35.2","41.4","29.99","95","1.7","3.5","0.00","0.00"
"14:19:57","59","36","42.3","29.99","115","1.2","3.5","0.00","0.00"
"14:24:59","59.8","35.6","40.4","29.99","128","1.4","3.5","0.00","0.00"
"14:29:58","60.1","35.3","39.4","29.99","107","2.4","4","0.00","0.00"
"14:34:58","59.8","34.7","38.9","29.99","98","1.4","4","0.00","0.00"
"14:39:57","60.1","34.9","38.7","29.99","101","1.3","5","0.00","0.00"
"14:44:58","60.3","34.6","38","29.99","148","2.4","6","0.00","0.00"
"14:49:58","60.4","34.3","37.4","29.98","129","2.1","5","0.00","0.00"
"14:54:58","60.5","34","36.9","29.98","134","2.8","7","0.00","0.00"
"14:59:59","60.4","34","37","29.98","148","2.6","6","0.00","0.00"
"15:04:59","60.4","33.5","36.3","29.98","158","3.3","7","0.00","0.00"
"15:09:56","60.6","34.2","37","29.98","157","2.1","7","0.00","0.00"
"15:14:58","60.7","33.5","35.8","29.98","127","3.1","9.2","0.00","0.00"
"15:19:59","60.5","33.1","35.5","29.97","119","3.5","7","0.00","0.00"
"15:24:57","60.3","32.6","35.1","29.97","135","2.5","9","0.00","0.00"
"15:29:57","60.5","33","35.5","29.97","157","2.2","5.8","0.00","0.00"
"15:34:57","60.4","32.4","34.6","29.96","123","4.1","7","0.00","0.00"
"15:39:57","60","32.1","34.8","29.96","163","2.8","6.9","0.00","0.00"
"15:44:58","59.8","31.9","34.8","29.96","148","2.1","6","0.00","0.00"
"15:49:57","59.7","32.5","35.7","29.95","153","1.9","5","0.00","0.00"
"15:54:56","59.7","32.9","36.4","29.95","137","2.8","7","0.00","0.00"
"15:59:59","59.5","32.7","36.3","29.95","145","2.1","5","0.00","0.00"
"16:04:56","59.3","33.1","37.1","29.94","171","1.9","4","0.00","0.00"
"16:09:57","59","33.4","37.9","29.94","193","1.9","4","0.00","0.00"
"16:14:58","58.7","33.1","38","29.94","187","2.7","5","0.00","0.00"
"16:19:56","58.5","33.2","38.4","29.94","165","2","5","0.00","0.00"
"16:24:57","58.4","32.9","38.1","29.94","174","2.3","7","0.00","0.00"
"16:29:57","58.2","32.9","38.2","29.94","156","2.2","5.8","0.00","0.00"
"16:34:58","58.1","32.7","38.2","29.94","144","2","6","0.00","0.00"
"16:39:57","57.8","32.8","38.7","29.94","133","0.9","3.5","0.00","0.00"
"16:44:56","57.5","33.1","39.6","29.94","134","1.1","3.5","0.00","0.00"
"16:49:59","57.1","33","40","29.94","134","0.9","3","0.00","0.00"
"16:54:59","56.8","32.7","40","29.94","134","0.5","3.5","0.00","0.00"
"16:59:56","56.5","32.6","40.3","29.94","134","0.1","1.2","0.00","0.00"
"17:04:58","56.3","32.8","40.8","29.94","134","0.1","1.2","0.00","0.00"
"17:09:58","56","32.9","41.4","29.94","134","0","0","0.00","0.00"
"17:14:58","55.6","32.7","41.8","29.94","134","0.5","2.3","0.00","0.00"
"17:19:57","55.2","32.8","42.6","29.94","134","0.7","2.3","0.00","0.00"
"17:24:57","54.9","33","43.4","29.94","134","0.7","2.3","0.00","0.00"
"17:29:57","54.5","33.2","44.4","29.95","134","0.6","3.5","0.00","0.00"
"17:34:59","54.2","33.3","45","29.95","135","0.9","3.5","0.00","0.00"
"17:39:57","53.8","33.4","45.8","29.95","136","0.5","3","0.00","0.00"
"17:44:57","53.5","33.4","46.4","29.95","136","0.3","2.3","0.00","0.00"
"17:49:56","53.3","33.8","47.4","29.95","136","0.5","2.3","0.00","0.00"
"17:54:58","53","34","48.4","29.95","136","0.2","1.2","0.00","0.00"
"17:59:58","52.3","34.3","50.2","29.95","136","0","0","0.00","0.00"
"18:04:58","51.6","34.7","52.3","29.94","136","0","1.2","0.00","0.00"
"18:09:56","50.9","33.7","51.5","29.94","136","0","0","0.00","0.00"
"18:14:56","50.4","34.1","53.4","29.94","136","0","1","0.00","0.00"
"18:19:59","49.8","34.2","54.8","29.94","136","0.1","2.3","0.00","0.00"
"18:24:58","49.3","34.5","56.5","29.94","136","0.1","2","0.00","0.00"
"18:29:58","48.7","34.3","57.5","29.94","136","1.6","2.3","0.00","0.00"
"18:34:56","48.1","34.6","59.2","29.93","136","1.6","3","0.00","0.00"
"18:39:56","47.6","34.7","60.8","29.93","135","1.8","3.5","0.00","0.00"
"18:44:56","47.1","34.7","62","29.93","135","0.4","2.3","0.00","0.00"
"18:49:59","46.9","35","63.1","29.93","135","0.4","2.3","0.00","0.00"
"18:54:56","46.6","35.1","64.2","29.93","134","1.1","3.5","0.00","0.00"
"18:59:56","46.2","34.6","63.6","29.93","134","0.3","2.3","0.00","0.00"
"19:04:59","46.2","34.5","63.5","29.93","134","0.1","1.2","0.00","0.00"
"19:09:57","46.1","35.1","65.2","29.93","134","0.4","1.2","0.00","0.00"
"19:14:56","46.1","35.1","65.3","29.93","134","0.1","1.2","0.00","0.00"
"19:19:56","46.1","34.8","64.5","29.92","134","0.6","2.3","0.00","0.00"
"19:24:58","46.2","34.9","64.6","29.92","134","0","1","0.00","0.00"
"19:29:57","46.2","34.8","64.3","29.92","134","0.1","2.3","0.00","0.00"
"19:34:58","46.1","35.2","65.4","29.92","106","1.1","3.5","0.00","0.00"
"19:39:58","46","35.3","66","29.92","80","0.5","3.5","0.00","0.00"
"19:44:58","45.8","35.1","66","29.92","81","0","2","0.00","0.00"
"19:49:59","45.6","35.7","68.2","29.92","81","0.1","2.3","0.00","0.00"
"19:54:56","45.4","35.5","68","29.92","81","0","1.2","0.00","0.00"
"19:59:59","45.3","35.5","68.3","29.92","80","0","0","0.00","0.00"
"20:04:57","45.4","36","69.6","29.90","80","0.2","1.2","0.00","0.00"
"20:09:58","45.4","36.4","70.5","29.90","80","1.2","3.5","0.00","0.00"
"20:14:57","45.5","36.4","70.1","29.90","80","0.8","2.3","0.00","0.00"
"20:19:58","45.6","36","69","29.89","80","0.6","2.3","0.00","0.00"
"20:24:58","45.6","35.9","68.7","29.89","80","0.2","2.3","0.00","0.00"
"20:29:56","45.6","36","68.8","29.89","80","0.7","2.3","0.00","0.00"
"20:34:59","45.7","36.2","69.1","29.89","80","1","2.3","0.00","0.00"
"20:39:56","45.8","36.3","69.5","29.89","80","0","1.2","0.00","0.00"
"20:44:56","45.7","37.3","72.3","29.89","80","0.1","1.2","0.00","0.00"
"20:49:56","45.6","37.1","72","29.89","80","0","0","0.00","0.00"
"20:54:57","45.6","36.9","71.5","29.89","80","0","0","0.00","0.00"
"20:59:56","45.5","36.6","71","29.89","80","0","0","0.00","0.00"
"21:04:58","45.6","36.7","70.9","29.88","80","0","0","0.00","0.00"
"21:09:58","45.6","36.7","70.7","29.88","80","0","0","0.00","0.00"
"21:14:57","45.8","37.2","71.6","29.88","80","0.1","1.2","0.00","0.00"
"21:19:56","46","36.6","69.4","29.88","80","0","1.2","0.00","0.00"
"21:24:56","46.2","36.6","69","29.88","80","0","0","0.00","0.00"
"21:29:56","46.4","37.5","71","29.88","80","0","0","0.00","0.00"
"21:34:56","46.4","37.6","71.2","29.87","80","0","0","0.00","0.00"
"21:39:59","46.4","37.5","71","29.87","80","0","0","0.00","0.00"
"21:44:57","46.5","37.6","71","29.87","80","0","0","0.00","0.00"
"21:49:57","46.5","37.5","70.8","29.87","80","0","0","0.00","0.00"
"21:54:58","46.5","37.4","70.5","29.87","80","0","0","0.00","0.00"
"21:59:59","46.5","37.3","70.2","29.87","80","0","0","0.00","0.00"
"22:04:57","46.5","38","72.1","29.87","80","0","0","0.00","0.00"
"22:09:59","46.5","38.3","72.8","29.87","80","0","0","0.00","0.00"
"22:14:57","46.5","37.8","71.6","29.87","80","0","0","0.00","0.00"
"22:19:56","46.6","38","71.9","29.86","80","0","0","0.00","0.00"
"22:24:59","46.6","38.1","72","29.86","80","0.7","2.3","0.00","0.00"
"22:29:59","46.5","37.8","71.5","29.86","80","0","1.2","0.00","0.00"
"22:34:57","46.5","38.2","72.5","29.86","80","0","1","0.00","0.00"
"22:39:59","46.5","38.3","73","29.86","80","0.3","2","0.00","0.00"
"22:44:56","46.4","38.6","74","29.86","80","0.5","2","0.00","0.00"
"22:49:59","46.4","38.8","74.7","29.86","80","0.9","2.3","0.00","0.00"
"22:54:58","46.3","38.8","74.9","29.86","80","0.9","2.3","0.00","0.00"
"22:59:56","46.2","38.6","74.6","29.86","80","0","1.2","0.00","0.00"
"23:04:58","46.2","39.6","77.6","29.85","80","0","0","0.00","0.00"
"23:09:59","46.1","40","79.1","29.85","80","0","1","0.00","0.00"
"23:14:57","46","39.4","77.8","29.85","80","0.7","1.2","0.00","0.00"
"23:19:58","45.9","39.7","78.8","29.85","80","0","1.2","0.00","0.00"
"23:24:57","45.8","39.8","79.4","29.85","80","0","0","0.00","0.00"
"23:29:59","45.6","39.6","79.3","29.85","80","0","0","0.00","0.00"
"23:34:58","45.6","39.6","79.6","29.84","80","0","0","0.00","0.00"
"23:39:57","45.5","39.9","80.9","29.84","80","0","0","0.00","0.00"
"23:44:57","45.3","40.1","82","29.84","80","0","0","0.00","0.00"
"23:49:59","45.1","39.9","82","29.83","80","0","0","0.00","0.00"
"23:54:58","45","40.1","82.8","29.83","80","0","0","0.00","0.00"
"23:59:57","45","40.3","83.5","29.83","80","0","0","0.00","0.00"
